Faith, SD

8:07 PM MDT on March 24, 2017 (GMT -0600)
Faith

Weather History for KD07 - May, 2013

Change the Weather History Date:

Wednesday, May 22, 2013

  Actual Average Record
Temperature  
Mean Temperature 54 °F 57 °F  
Max Temperature 64 °F 68 °F 93 °F (2006)
Min Temperature 44 °F 45 °F 37 °F (2001)
Degree Days  
Heating Degree Days 11 9  
Month to date heating degree days 250 253  
Since 1 July heating degree days 7491 7552  
Cooling Degree Days 0 0  
Month to date cooling degree days 13 0  
Year to date cooling degree days 13 1  
Growing Degree Days 4 (Base 50)    
Moisture  
Dew Point 44 °F    
Average Humidity 74    
Maximum Humidity 100    
Minimum Humidity 48    
Precipitation  
Precipitation 0.01 in 0.10 in 0.24 in (2008)
Month to date precipitation 2.13 2.15  
Year to date precipitation 4.31 5.38  
Sea Level Pressure  
Sea Level Pressure 30.04 in    
Wind  
Wind Speed 15 mph (NE)    
Max Wind Speed 28 mph    
Max Gust Speed 33 mph    
T = Trace of Precipitation, MM = Missing Value Source: NWS Daily Summary

Daily Weather History Graph

Daily Weather History Graph

Search for Another Location

Airport or City:

Trip Planner

Search our weather history database for the weather conditions in past years. The results will help you decide how hot, cold, wet, or windy it might be!

Date:

Astronomy

May. 22, 2013 Rise Set
Actual Time 5:11 AM MDT 8:18 PM MDT
Civil Twilight 4:36 AM MDT 8:53 PM MDT
Nautical Twilight 3:51 AM MDT 9:39 PM MDT
Astronomical Twilight 2:56 AM MDT 10:34 PM MDT
Moon 5:37 PM MDT (5/22) 3:24 AM MDT (5/22)
Length of Visible Light 16h 17m
Length of Day
15h 07m
Waxing Gibbous, 92% of the Moon is Illuminated
May 22
Waxing Gibbous
May 24
Full
May 31
Last Quarter
Jun 8
New
Jun 16
First Quarter

Hourly Weather History & Observations

Time (MDT) Temp. Windchill Dew Point Humidity Pressure Visibility Wind Dir Wind Speed Gust Speed Precip Events Conditions
12:56 AM 44.1 °F 38.6 °F 44.1 °F 100% 29.98 in - North 10.4 mph - N/A   Unknown
1:56 AM 45.0 °F 40.1 °F 45.0 °F 100% 29.96 in - NNW 9.2 mph - N/A   Unknown
2:56 AM 45.0 °F 39.3 °F 45.0 °F 100% 29.96 in - NNW 11.5 mph - N/A   Unknown
3:56 AM 45.0 °F 38.5 °F 45.0 °F 100% 29.95 in - North 13.8 mph - 0.01 in   Unknown
4:56 AM 45.0 °F 36.6 °F 45.0 °F 100% 29.96 in - NNE 21.9 mph 27.6 mph N/A   Unknown
5:56 AM 44.1 °F 36.8 °F 44.1 °F 100% 29.98 in - NNE 16.1 mph 21.9 mph N/A   Unknown
6:56 AM 45.0 °F 37.9 °F 44.1 °F 97% 29.99 in - NNE 16.1 mph - N/A   Unknown
7:56 AM 46.0 °F 39.6 °F 44.1 °F 93% 30.01 in - NNE 15.0 mph - N/A   Unknown
8:56 AM 46.9 °F - 45.0 °F 93% 30.02 in - NNE 13.8 mph - N/A   Unknown
9:56 AM 51.1 °F - 45.0 °F 80% 30.02 in - NNE 17.3 mph - N/A   Unknown
10:56 AM 52.0 °F - 43.0 °F 71% 30.03 in - NE 17.3 mph 24.2 mph N/A   Unknown
11:56 AM 54.0 °F - 42.1 °F 64% 30.04 in - NE 17.3 mph - N/A   Unknown
12:56 PM 57.9 °F - 41.0 °F 53% 30.03 in - NNE 23.0 mph 28.8 mph N/A   Unknown
1:56 PM 61.0 °F - 42.1 °F 50% 30.01 in - NE 24.2 mph 31.1 mph N/A   Unknown
2:56 PM 60.1 °F - 44.1 °F 55% 30.03 in - NE 17.3 mph - N/A   Unknown
3:56 PM 64.0 °F - 45.0 °F 50% 30.02 in - ENE 21.9 mph 26.5 mph N/A   Unknown
4:56 PM 63.0 °F - 44.1 °F 50% 30.04 in - ENE 18.4 mph 24.2 mph N/A   Unknown
5:56 PM 62.1 °F - 44.1 °F 52% 30.06 in - ENE 18.4 mph 23.0 mph N/A   Unknown
6:56 PM 61.0 °F - 43.0 °F 52% 30.08 in - East 13.8 mph - N/A   Unknown
7:56 PM 57.0 °F - 45.0 °F 64% 30.09 in - East 11.5 mph - N/A   Unknown
8:56 PM 50.0 °F - 46.0 °F 86% 30.14 in - SSE 6.9 mph - N/A   Unknown
9:56 PM 52.0 °F - 48.0 °F 86% 30.15 in - ESE 5.8 mph - N/A   Unknown
10:56 PM 51.1 °F - 44.1 °F 77% 30.17 in - ESE 9.2 mph - N/A   Unknown
11:56 PM 50.0 °F - 44.1 °F 80% 30.19 in - ESE 11.5 mph - N/A   Unknown